SIA24 WSSS-LOWW

Flight info

Callsign SIA24
Flight time N/A
Altitude 30000
Route AROSO5B AROSO Y513 KALIL Y501 RINBA Y503 VPL P628 MINAT/N0516F320 P628 IKINA/N0507F340 P628 RK G202 ZB L750 RIKAD/N0495F360 L750 RANAH B801 NINOP A909 RODAR M11 REBLO UM11 DELEL/N0494F380 UM11 CRM UL746 ODERO L746 LUGEB DCT OPT DCT IRLOX DCT EMPOS DCT EVRIK DCT BKS DCT BALUX DCT TORNO DCT NATEX NATEX2W
Aircraft B744/H-SDE3FGHIM1M2RWXY/LB1

Departure

Time N/A
Airport Singapore Changi Airport (WSSS)

Arrival

Time 2026-04-21 17:59
Airport Vienna International Airport (LOWW)
Time Latitude Longitude Altitude Speed Heading
2026-04-21 17:05 45.56361 24.35595 37998 ft 455 kts 298°
2026-04-21 17:05 45.59646 24.27795 37997 ft 455 kts 298°
2026-04-21 17:06 45.62910 24.20043 37996 ft 455 kts 298°
2026-04-21 17:06 45.65840 24.12085 37995 ft 456 kts 294°
2026-04-21 17:07 45.68622 24.03939 37994 ft 456 kts 294°
2026-04-21 17:07 45.71410 23.95728 37994 ft 456 kts 294°
2026-04-21 17:08 45.74161 23.87606 37995 ft 457 kts 294°
2026-04-21 17:08 45.76929 23.79421 37994 ft 457 kts 294°
2026-04-21 17:09 45.81227 23.67250 37995 ft 456 kts 297°
2026-04-21 17:09 45.84328 23.59313 37996 ft 455 kts 297°
2026-04-21 17:10 45.87395 23.51360 37996 ft 455 kts 297°
2026-04-21 17:11 45.93310 23.35854 38000 ft 455 kts 296°
2026-04-21 17:11 45.96328 23.27936 38001 ft 455 kts 297°
2026-04-21 17:12 45.99404 23.19995 38002 ft 455 kts 297°
2026-04-21 17:12 46.02458 23.11997 38004 ft 458 kts 297°
2026-04-21 17:13 46.05523 23.03913 38005 ft 461 kts 297°
2026-04-21 17:13 46.08582 22.95809 38008 ft 461 kts 297°
2026-04-21 17:14 46.11630 22.87704 38010 ft 460 kts 296°
2026-04-21 17:14 46.14673 22.79588 38012 ft 459 kts 296°
2026-04-21 17:15 46.17700 22.71493 38014 ft 459 kts 296°
2026-04-21 17:15 46.20738 22.63387 38016 ft 459 kts 297°
2026-04-21 17:16 46.23783 22.55278 38019 ft 459 kts 296°
2026-04-21 17:16 46.26788 22.47138 38020 ft 458 kts 296°
2026-04-21 17:17 46.29774 22.39007 38023 ft 458 kts 296°
2026-04-21 17:17 46.32756 22.30871 38028 ft 458 kts 296°
2026-04-21 17:18 46.35746 22.22722 38032 ft 458 kts 297°
2026-04-21 17:18 46.38875 22.14685 38034 ft 458 kts 298°
2026-04-21 17:19 46.41996 22.06695 38035 ft 458 kts 297°
2026-04-21 17:19 46.45139 21.98582 38035 ft 458 kts 297°
2026-04-21 17:20 46.48230 21.90565 38035 ft 458 kts 297°
2026-04-21 17:20 46.51336 21.82482 38036 ft 459 kts 297°
2026-04-21 17:21 46.54489 21.74417 38036 ft 460 kts 297°
2026-04-21 17:21 46.57630 21.66317 38036 ft 460 kts 297°
2026-04-21 17:22 46.60754 21.58182 38036 ft 461 kts 297°
2026-04-21 17:22 46.63869 21.50031 38037 ft 462 kts 297°
2026-04-21 17:23 46.67022 21.41870 38038 ft 462 kts 297°
2026-04-21 17:23 46.70133 21.33673 38038 ft 463 kts 297°
2026-04-21 17:24 46.73231 21.25444 38039 ft 463 kts 297°
2026-04-21 17:24 46.76294 21.17281 38042 ft 464 kts 297°
2026-04-21 17:25 46.79401 21.08995 38043 ft 464 kts 296°
2026-04-21 17:25 46.82103 21.00439 38043 ft 464 kts 291°
2026-04-21 17:26 46.84545 20.91713 38044 ft 464 kts 291°
2026-04-21 17:26 46.87001 20.82983 38046 ft 464 kts 291°
2026-04-21 17:27 46.89463 20.74259 38047 ft 464 kts 291°
2026-04-21 17:27 46.91929 20.65514 38049 ft 465 kts 291°
2026-04-21 17:28 46.94431 20.56773 38051 ft 465 kts 292°
2026-04-21 17:28 46.96947 20.48047 38051 ft 465 kts 291°
2026-04-21 17:29 46.99431 20.39294 38052 ft 466 kts 291°
2026-04-21 17:29 47.01907 20.30503 38052 ft 466 kts 291°
2026-04-21 17:30 47.04373 20.21707 38053 ft 467 kts 292°
2026-04-21 17:30 47.06832 20.12900 38053 ft 467 kts 292°
2026-04-21 17:31 47.09291 20.04052 38054 ft 468 kts 292°
2026-04-21 17:31 47.11742 19.95202 38054 ft 469 kts 291°
2026-04-21 17:32 47.14195 19.86310 38056 ft 470 kts 291°
2026-04-21 17:32 47.16638 19.77420 38057 ft 469 kts 291°
2026-04-21 17:33 47.19078 19.68512 38062 ft 470 kts 291°
2026-04-21 17:33 47.21514 19.59581 38067 ft 471 kts 291°
2026-04-21 17:34 47.23981 19.50669 38072 ft 470 kts 291°
2026-04-21 17:34 47.26405 19.41724 38076 ft 470 kts 291°
2026-04-21 17:35 47.28791 19.32812 38079 ft 470 kts 291°
2026-04-21 17:35 47.31142 19.24000 38081 ft 470 kts 291°
2026-04-21 17:36 47.33521 19.15080 38082 ft 471 kts 291°
2026-04-21 17:36 47.36120 19.06221 38081 ft 471 kts 295°
2026-04-21 17:37 47.38907 18.97492 38082 ft 471 kts 294°
2026-04-21 17:37 47.41694 18.88732 38084 ft 471 kts 295°
2026-04-21 17:38 47.44472 18.79955 38089 ft 472 kts 294°
2026-04-21 17:38 47.47196 18.71143 37800 ft 468 kts 294°
2026-04-21 17:39 47.48533 18.66799 37358 ft 461 kts 294°
2026-04-21 17:39 47.49857 18.62492 36528 ft 460 kts 294°
2026-04-21 17:39 47.51188 18.58158 35471 ft 465 kts 294°
2026-04-21 17:39 47.52519 18.53827 34728 ft 461 kts 294°
2026-04-21 17:40 47.53818 18.49501 33886 ft 459 kts 292°
2026-04-21 17:40 47.54923 18.45091 33029 ft 457 kts 289°
2026-04-21 17:40 47.55896 18.40623 32140 ft 455 kts 287°
2026-04-21 17:40 47.56804 18.36147 31220 ft 454 kts 287°
2026-04-21 17:41 47.57715 18.31665 30259 ft 454 kts 287°
2026-04-21 17:41 47.58636 18.27196 29265 ft 453 kts 287°
2026-04-21 17:41 47.59564 18.22722 28217 ft 460 kts 287°
2026-04-21 17:41 47.60537 18.18048 27079 ft 484 kts 287°
2026-04-21 17:42 47.61527 18.13297 26198 ft 475 kts 287°
2026-04-21 17:42 47.62487 18.08688 25295 ft 462 kts 287°
2026-04-21 17:42 47.63427 18.04168 24414 ft 454 kts 287°
2026-04-21 17:42 47.64353 17.99742 23572 ft 446 kts 288°
2026-04-21 17:43 47.65296 17.95407 22756 ft 438 kts 288°
2026-04-21 17:43 47.66239 17.91160 21952 ft 430 kts 288°
2026-04-21 17:43 47.67123 17.87026 21169 ft 423 kts 288°
2026-04-21 17:43 47.68014 17.82752 20362 ft 439 kts 287°
2026-04-21 17:44 47.68904 17.78427 19631 ft 445 kts 287°
2026-04-21 17:44 47.69803 17.74037 18955 ft 432 kts 287°
2026-04-21 17:44 47.70668 17.69803 18082 ft 426 kts 287°
2026-04-21 17:44 47.71522 17.65614 17296 ft 419 kts 287°
2026-04-21 17:45 47.72344 17.61573 16300 ft 411 kts 287°
2026-04-21 17:45 47.73161 17.57562 15466 ft 399 kts 287°
2026-04-21 17:45 47.73952 17.53665 14710 ft 392 kts 287°
2026-04-21 17:45 47.74379 17.49676 13982 ft 393 kts 275°
2026-04-21 17:46 47.74412 17.45560 13331 ft 397 kts 270°
2026-04-21 17:46 47.74252 17.41533 12630 ft 384 kts 266°
2026-04-21 17:46 47.73970 17.37640 11928 ft 373 kts 264°
2026-04-21 17:46 47.73651 17.33877 11228 ft 363 kts 264°
2026-04-21 17:47 47.73354 17.30197 10526 ft 355 kts 265°
2026-04-21 17:47 47.73078 17.26596 9825 ft 347 kts 265°
2026-04-21 17:47 47.72811 17.23055 9122 ft 342 kts 265°
2026-04-21 17:47 47.72553 17.19581 8489 ft 335 kts 265°
2026-04-21 17:48 47.72383 17.17276 8123 ft 330 kts 265°
2026-04-21 17:48 47.72052 17.12849 7378 ft 321 kts 266°
2026-04-21 17:48 47.72092 17.09587 6836 ft 313 kts 276°
2026-04-21 17:48 47.72088 17.06380 6287 ft 308 kts 268°
2026-04-21 17:49 47.71885 17.03242 5776 ft 302 kts 265°
2026-04-21 17:49 47.71719 17.01209 5476 ft 296 kts 265°
2026-04-21 17:49 47.71467 16.98222 5023 ft 288 kts 265°
2026-04-21 17:49 47.71227 16.95310 4605 ft 280 kts 265°
2026-04-21 17:50 47.70993 16.92487 4244 ft 271 kts 265°
2026-04-21 17:50 47.70772 16.89761 3894 ft 262 kts 265°
2026-04-21 17:50 47.70558 16.87109 3531 ft 254 kts 265°
2026-04-21 17:50 47.70347 16.84544 3178 ft 246 kts 265°
2026-04-21 17:51 47.70314 16.82103 3087 ft 229 kts 277°
2026-04-21 17:51 47.70564 16.79860 3025 ft 212 kts 282°
2026-04-21 17:51 47.70879 16.77719 3012 ft 211 kts 283°
2026-04-21 17:51 47.71252 16.75633 3005 ft 209 kts 293°
2026-04-21 17:52 47.72191 16.74065 3011 ft 205 kts 329°
2026-04-21 17:52 47.73524 16.73344 3009 ft 205 kts 342°
2026-04-21 17:52 47.74899 16.72866 3012 ft 200 kts 346°
2026-04-21 17:52 47.76264 16.72468 3016 ft 200 kts 347°
2026-04-21 17:53 47.77630 16.72038 3031 ft 200 kts 346°
2026-04-21 17:53 47.78983 16.71561 3030 ft 200 kts 345°
2026-04-21 17:53 47.80338 16.71044 3010 ft 202 kts 345°
2026-04-21 17:53 47.81669 16.70516 3010 ft 201 kts 344°
2026-04-21 17:54 47.82767 16.70070 3013 ft 201 kts 344°
2026-04-21 17:54 47.84115 16.69516 3020 ft 201 kts 343°
2026-04-21 17:54 47.85462 16.68959 3021 ft 201 kts 343°
2026-04-21 17:54 47.86796 16.68404 3020 ft 201 kts 343°
2026-04-21 17:55 47.88160 16.67835 3019 ft 201 kts 343°
2026-04-21 17:55 47.89501 16.67274 3021 ft 201 kts 343°
2026-04-21 17:55 47.90849 16.66709 3020 ft 201 kts 343°
2026-04-21 17:55 47.92195 16.66146 3022 ft 201 kts 343°
2026-04-21 17:56 47.93542 16.65581 3024 ft 201 kts 343°
2026-04-21 17:56 47.94871 16.65023 3022 ft 201 kts 343°
2026-04-21 17:56 47.96230 16.64453 3019 ft 201 kts 343°
2026-04-21 17:56 47.97456 16.63938 2933 ft 201 kts 343°
2026-04-21 17:57 47.98845 16.63354 2620 ft 200 kts 343°
2026-04-21 17:57 48.00198 16.62785 2345 ft 199 kts 343°
2026-04-21 17:57 48.01503 16.62236 2086 ft 196 kts 343°
2026-04-21 17:57 48.02833 16.61676 1822 ft 195 kts 343°
2026-04-21 17:58 48.04099 16.61142 1647 ft 179 kts 343°
2026-04-21 17:58 48.05204 16.60677 1382 ft 164 kts 343°
2026-04-21 17:58 48.06248 16.60237 1154 ft 148 kts 343°
2026-04-21 17:58 48.07207 16.59826 968 ft 140 kts 343°
2026-04-21 17:59 48.08136 16.59423 764 ft 139 kts 345°
2026-04-21 17:59 48.09040 16.59057 616 ft 129 kts 343°
2026-04-21 17:59 48.09747 16.58760 614 ft 74 kts 345°
2026-04-21 17:59 48.10076 16.58621 613 ft 29 kts 344°
2026-04-21 18:00 48.10211 16.58565 613 ft 18 kts 344°
2026-04-21 18:00 48.10328 16.58503 613 ft 17 kts 322°
2026-04-21 18:00 48.10413 16.58382 613 ft 17 kts 303°
2026-04-21 18:00 48.10471 16.58238 613 ft 16 kts 300°
2026-04-21 18:01 48.10550 16.58147 613 ft 15 kts 350°
2026-04-21 18:01 48.10646 16.58108 613 ft 14 kts 344°
2026-04-21 18:01 48.10734 16.58067 613 ft 13 kts 342°
2026-04-21 18:01 48.10817 16.58026 613 ft 12 kts 342°
2026-04-21 18:02 48.10899 16.57991 613 ft 12 kts 345°
2026-04-21 18:02 48.10977 16.57960 613 ft 12 kts 347°
2026-04-21 18:02 48.11054 16.57932 613 ft 11 kts 346°
2026-04-21 18:02 48.11100 16.57905 613 ft 4 kts 291°
2026-04-21 18:03 48.11107 16.57870 613 ft 4 kts 290°
2026-04-21 18:03 48.11117 16.57838 613 ft 3 kts 296°
2026-04-21 18:03 48.11127 16.57807 613 ft 3 kts 296°
2026-04-21 18:03 48.11138 16.57774 613 ft 4 kts 296°
2026-04-21 18:04 48.11151 16.57734 613 ft 4 kts 296°
2026-04-21 18:04 48.11177 16.57656 613 ft 10 kts 296°
2026-04-21 18:04 48.11208 16.57561 613 ft 10 kts 296°
2026-04-21 18:04 48.11239 16.57470 613 ft 10 kts 296°
2026-04-21 18:05 48.11267 16.57382 613 ft 9 kts 295°
2026-04-21 18:05 48.11294 16.57297 613 ft 9 kts 295°
2026-04-21 18:05 48.11334 16.57169 613 ft 18 kts 296°
2026-04-21 18:05 48.11388 16.57002 613 ft 17 kts 296°
2026-04-21 18:06 48.11441 16.56845 613 ft 16 kts 296°
2026-04-21 18:06 48.11490 16.56696 613 ft 15 kts 296°
2026-04-21 18:06 48.11535 16.56556 613 ft 15 kts 296°
2026-04-21 18:06 48.11578 16.56424 613 ft 14 kts 296°
2026-04-21 18:07 48.11619 16.56302 613 ft 13 kts 296°
2026-04-21 18:07 48.11658 16.56184 613 ft 12 kts 296°
2026-04-21 18:07 48.11692 16.56092 613 ft 8 kts 322°
2026-04-21 18:07 48.11741 16.56103 613 ft 6 kts 26°
2026-04-21 18:08 48.11769 16.56124 613 ft 2 kts 25°
2026-04-21 18:08 48.11773 16.56126 613 ft 0 kts 25°